THORAD AGENA D DEB, 4677

Orbit data source: Space-Track

THORAD AGENA D DEB, 4677 is space debris in SSO originally from a launch on Wed, 08 Apr 1970 UTC launched from the Air Force Western Test Range (AFWTR). Debris objects in space refer to the collection of defunct objects orbiting the Earth. Examples of debris include non-operational satellites, rocket bodies, and fragments generated from explosions, collisions, or faulty payload assembly.

Loading next visibility...
Identifier
4677, 1970-025BA
Orbit
SSO
Country
Flag of USUS
Related business
Manufacturer
Unknown
Mission
Spacecraft
Bus & Motor
Unknown
Mass
Unknown
Launch date (UTC)
1970-04-08 (56 years ago)
Launch vehicle
Unknown
Launch site
Air Force Western Test Range (AFWTR)
Object type
Payload
Rocket body
Debris
Shape & HBR
Unknown shape, 0.1 m
Radar Cross Section
Medium (>0.1 m² and <1 m²)

Expand to show TLE details & history
Last TLE update: 10 hours ago

TLE from 10 hours ago
0 THORAD AGENA D DEB
1 04677U 70025BA  26208.29183316  .00000050  00000-0  13324-3 0  9990
2 04677  99.9925 329.3069 0009854  57.7388 331.7406 13.58494022784006
Epoch: 2026-07-27T07:00Z
TLE epoch observation values (Epoch: 2026-07-27T07:00:14.385Z)
Latitude
28.98364°
Longitude
-86.30248°
Altitude
1,038.212 km
Speed
7.338 km/s
True Right ascension
21h 34m 56s
True Declination
28° 50' 37"
Sunlit
Object was in full shadow at epoch
Visualization orbit readout
Latitude
Unknown
Longitude
Unknown
Altitude
Unknown
Speed
Unknown
Apparent Right ascension
Unknown
Apparent Declination
Unknown
Sunlit
N/A
Visualization observer readout
Local Sidereal Time
05:55:51
Azimuth
Unknown
Elevation
Unknown
Doppler factor
Unknown
Orbital elements
Apogee altitude
1,045.784 km
Perigee altitude
1,031.167 km
Semi-major axis
7,416.613 km
Eccentricity
0.00099
Inclination
99.9925°
RAAN
329.3069°
Arg. of periapsis
57.7388°
True anomaly
331.68708°
Mean anomaly
331.7406°
Eccentric anomaly
331.71385°
Mean motion
3.39809 °/min
Orbital period
105.94 mins
BSTAR
0.00013324
Loading maneuver chart data...
Computing Atmospheric mass density...

Documentation

Showing up to 5 results
|